Location: Stockholm
(59.3330°N, 18.0500°E)
Time: 03:46:36
(UTC+02:00)

NOAA 18 - Pass Details

Date: 11 April 2023
Orbit: 838 x 860 km, 98.9° (Epoch: 31 May)

Event Time Altitude Azimuth Distance (km) Brightness Sun altitude
Exits shadow 21:02:35 11° 122° (ESE) 2,440 6.9 -8.7°
Maximum altitude 21:07:32 40° 56° (NE) 1,260 6.0 -9.3°
Drops below altitude 10° 21:12:40 10° 349° (N) 2,505 8.4 -9.8°
Sets 21:15:10 0° 342° (NNW) 3,443 9.3 -10.0°
